Find Starlink 32094

NORAD ID: 59696 Int'l Des: 2024-086 Owner: SPXS Country: US Constellation: starlink operational
LEOCIRCULAR

实时位置

正在加载3D地球...

关于 Starlink 32094

正在加载描述...

即将过境

Passes for default location (London). Set your location on the main map for personalized predictions.

高度历史

Loading altitude history...

两行轨道根数

1 59696U 24086Q 26125.28199426 .00001271 00000-0 55700-4 0 9994
2 59696 43.0001 100.5960 0000788 268.1071 91.9690 15.27574561112768
Epoch: May 5, 2026 • Age: 16 hours

当前状态

高度 485.4 km
速度 7.63 km/s
星下点 36.97°N, 54.5°W
发射日期 May 8, 2024
运行时间 1.9 years
类型 internet

技术详情

分类 Payload
质量 730.00 kg
干质量 700.00 kg
总质量 730.00 kg
长度 0.30 m
直径 4.10 m
跨度 29.00 m
形状 Box + pan
制造商 SPXS
平台类型 Starlink V2M
阶段状态 In Orbit
所有者/国家 SPXS/US

Most Searched